Time,TemperatureF,DewpointF,PressureIn,WindDirection,WindDirectionDegrees,WindSpeedMPH,WindSpeedGustMPH,Humidity,HourlyPrecipIn,Conditions,Clouds,dailyrainin,SolarRadiationWatts/m^2,SoftwareType,DateUTC
2013-06-22 00:02:00,61.2,60.8,30.09,West,262,0.0,0.0,99,0.01,,,0.19,0.0,meteohub,2013-06-22 10:02:00,
2013-06-22 00:07:00,61.2,60.8,30.09,West,267,0.0,0.0,99,0.01,,,0.19,0.0,meteohub,2013-06-22 10:07:00,
2013-06-22 00:12:00,61.2,60.8,30.09,North,0,0.0,0.0,99,0.01,,,0.19,0.0,meteohub,2013-06-22 10:12:00,
2013-06-22 00:17:00,61.2,60.8,30.08,West,261,0.0,0.0,99,0.01,,,0.20,0.0,meteohub,2013-06-22 10:17:00,
2013-06-22 00:22:00,61.2,60.8,30.08,North,0,0.0,0.0,99,0.01,,,0.20,0.0,meteohub,2013-06-22 10:22:00,
2013-06-22 00:27:00,61.2,60.8,30.08,West,264,0.0,0.0,99,0.01,,,0.20,0.0,meteohub,2013-06-22 10:27:00,
2013-06-22 00:32:00,61.2,60.8,30.08,West,267,0.0,0.0,99,0.02,,,0.21,0.0,meteohub,2013-06-22 10:32:00,
2013-06-22 00:37:00,61.0,60.6,30.08,North,0,0.0,0.0,99,0.02,,,0.21,0.0,meteohub,2013-06-22 10:37:00,
2013-06-22 00:42:00,61.0,60.6,30.07,West,265,0.0,0.0,99,0.02,,,0.21,0.0,meteohub,2013-06-22 10:42:00,
2013-06-22 00:47:00,61.0,60.6,30.07,West,265,0.0,0.0,99,0.02,,,0.21,0.0,meteohub,2013-06-22 10:47:00,
2013-06-22 00:52:00,60.8,60.4,30.07,West,264,0.0,0.0,99,0.03,,,0.22,0.0,meteohub,2013-06-22 10:52:00,
2013-06-22 00:57:00,60.8,60.4,30.07,West,265,0.0,0.0,99,0.03,,,0.22,0.0,meteohub,2013-06-22 10:57:00,
2013-06-22 01:02:00,60.8,60.4,30.06,West,264,0.0,0.0,99,0.03,,,0.22,0.0,meteohub,2013-06-22 11:02:00,
2013-06-22 01:07:00,60.6,60.3,30.06,West,264,0.0,0.0,99,0.03,,,0.22,0.0,meteohub,2013-06-22 11:07:00,
2013-06-22 01:12:00,60.4,60.1,30.06,West,264,0.0,0.0,99,0.02,,,0.22,0.0,meteohub,2013-06-22 11:12:00,
2013-06-22 01:17:00,60.1,59.5,30.06,West,264,0.0,0.0,98,0.02,,,0.22,0.0,meteohub,2013-06-22 11:17:00,
2013-06-22 01:22:00,59.5,59.0,30.06,East,88,0.0,0.0,98,0.02,,,0.22,0.0,meteohub,2013-06-22 11:22:00,
2013-06-22 01:27:00,59.4,58.8,30.06,ENE,77,0.0,0.0,98,0.02,,,0.22,0.0,meteohub,2013-06-22 11:27:00,
2013-06-22 01:32:00,59.0,58.5,30.06,East,98,0.0,0.0,98,0.01,,,0.22,0.0,meteohub,2013-06-22 11:32:00,
2013-06-22 01:37:00,58.6,58.1,30.06,East,92,0.0,0.0,98,0.01,,,0.22,0.0,meteohub,2013-06-22 11:37:00,
2013-06-22 01:42:00,58.6,58.1,30.06,East,96,0.0,0.0,98,0.01,,,0.22,0.0,meteohub,2013-06-22 11:42:00,
2013-06-22 01:47:00,58.6,58.1,30.05,East,90,0.0,0.0,98,0.01,,,0.22,0.0,meteohub,2013-06-22 11:47:00,
2013-06-22 01:52:00,58.6,58.1,30.05,East,88,0.0,0.0,98,0.00,,,0.22,0.0,meteohub,2013-06-22 11:52:00,
2013-06-22 01:57:00,58.6,58.1,30.05,ENE,76,0.0,0.0,98,0.00,,,0.22,0.0,meteohub,2013-06-22 11:57:00,
2013-06-22 02:02:00,58.6,58.1,30.05,ENE,76,0.0,0.0,98,0.00,,,0.22,0.0,meteohub,2013-06-22 12:02:00,
2013-06-22 02:07:00,58.5,57.9,30.05,East,101,0.0,0.0,98,0.00,,,0.22,0.0,meteohub,2013-06-22 12:07:00,
2013-06-22 02:12:00,58.5,57.9,30.05,ESE,117,0.0,0.0,98,0.00,,,0.22,0.0,meteohub,2013-06-22 12:12:00,
2013-06-22 02:17:00,58.6,58.1,30.04,ESE,115,0.0,0.0,98,0.00,,,0.22,0.0,meteohub,2013-06-22 12:17:00,
2013-06-22 02:22:00,58.6,58.1,30.04,ESE,114,0.0,0.0,98,0.00,,,0.22,0.0,meteohub,2013-06-22 12:22:00,
2013-06-22 02:27:00,58.6,58.1,30.04,ESE,115,0.0,0.0,98,0.00,,,0.22,0.0,meteohub,2013-06-22 12:27:00,
2013-06-22 02:32:00,58.6,58.1,30.04,ESE,116,0.0,0.0,98,0.00,,,0.22,0.0,meteohub,2013-06-22 12:32:00,
2013-06-22 02:37:00,58.6,58.1,30.04,ESE,115,0.0,0.0,98,0.00,,,0.22,0.0,meteohub,2013-06-22 12:37:00,
2013-06-22 02:42:00,58.5,57.9,30.04,ESE,115,0.0,0.0,98,0.00,,,0.22,0.0,meteohub,2013-06-22 12:42:00,
2013-06-22 02:47:00,58.5,57.9,30.04,ESE,112,0.0,0.0,98,0.00,,,0.22,0.0,meteohub,2013-06-22 12:47:00,
2013-06-22 02:53:00,58.3,57.7,30.04,ESE,104,0.0,0.0,98,0.00,,,0.22,0.0,meteohub,2013-06-22 12:53:00,
2013-06-22 02:58:00,58.3,57.7,30.04,ESE,114,0.0,0.0,98,0.00,,,0.22,0.0,meteohub,2013-06-22 12:58:00,
2013-06-22 03:03:00,58.1,57.6,30.04,ESE,115,0.0,0.0,98,0.00,,,0.22,0.0,meteohub,2013-06-22 13:03:00,
2013-06-22 03:08:00,58.3,57.7,30.04,ESE,118,0.0,0.0,98,0.00,,,0.22,0.0,meteohub,2013-06-22 13:08:00,
2013-06-22 03:13:00,58.1,57.6,30.04,ESE,118,0.0,0.0,98,0.00,,,0.22,0.0,meteohub,2013-06-22 13:13:00,
2013-06-22 03:18:00,57.9,57.4,30.05,ENE,73,0.0,0.0,98,0.00,,,0.22,0.0,meteohub,2013-06-22 13:18:00,
2013-06-22 03:23:00,57.7,57.2,30.05,ENE,78,0.0,0.0,98,0.00,,,0.22,0.0,meteohub,2013-06-22 13:23:00,
2013-06-22 03:28:00,57.6,56.7,30.05,ESE,102,0.0,0.0,97,0.00,,,0.22,0.0,meteohub,2013-06-22 13:28:00,
2013-06-22 03:33:00,57.4,56.5,30.05,ESE,121,0.0,0.0,97,0.00,,,0.22,0.0,meteohub,2013-06-22 13:33:00,
2013-06-22 03:38:00,57.7,57.2,30.05,SE,136,0.0,0.0,98,0.00,,,0.22,0.0,meteohub,2013-06-22 13:38:00,
2013-06-22 03:43:00,58.1,57.6,30.05,East,88,0.0,0.0,98,0.00,,,0.22,0.0,meteohub,2013-06-22 13:43:00,
2013-06-22 03:48:00,57.7,57.2,30.05,East,88,0.0,0.0,98,0.00,,,0.22,0.0,meteohub,2013-06-22 13:48:00,
2013-06-22 03:53:00,57.6,57.0,30.05,East,86,0.0,0.0,98,0.00,,,0.22,0.0,meteohub,2013-06-22 13:53:00,
2013-06-22 03:58:00,57.6,57.0,30.05,East,84,0.0,0.0,98,0.00,,,0.22,0.0,meteohub,2013-06-22 13:58:00,
2013-06-22 04:03:00,57.6,57.0,30.05,East,86,0.0,0.0,98,0.00,,,0.22,0.0,meteohub,2013-06-22 14:03:00,
2013-06-22 04:08:00,57.6,57.0,30.05,East,94,0.0,0.0,98,0.00,,,0.22,0.0,meteohub,2013-06-22 14:08:00,
2013-06-22 04:13:00,57.6,57.0,30.05,East,90,0.0,0.0,98,0.00,,,0.22,0.0,meteohub,2013-06-22 14:13:00,
2013-06-22 04:18:00,57.6,57.0,30.05,East,88,0.0,0.0,98,0.00,,,0.22,0.0,meteohub,2013-06-22 14:18:00,
2013-06-22 04:23:00,57.6,57.0,30.05,East,89,0.0,0.0,98,0.00,,,0.22,0.0,meteohub,2013-06-22 14:23:00,
2013-06-22 04:28:00,57.6,57.0,30.05,East,90,0.0,0.0,98,0.00,,,0.22,0.0,meteohub,2013-06-22 14:28:00,
2013-06-22 04:33:00,57.6,57.0,30.05,East,80,0.0,0.0,98,0.00,,,0.22,0.0,meteohub,2013-06-22 14:33:00,
2013-06-22 04:38:00,57.7,57.2,30.05,East,82,0.0,0.0,98,0.00,,,0.22,0.0,meteohub,2013-06-22 14:38:00,
2013-06-22 04:43:00,57.7,57.2,30.05,East,99,0.0,0.0,98,0.00,,,0.22,0.0,meteohub,2013-06-22 14:43:00,
2013-06-22 04:48:00,57.7,57.2,30.06,ESE,116,0.0,0.0,98,0.00,,,0.22,0.0,meteohub,2013-06-22 14:48:00,
2013-06-22 04:53:00,57.9,57.4,30.06,ESE,115,0.0,0.0,98,0.00,,,0.22,0.0,meteohub,2013-06-22 14:53:00,
2013-06-22 04:58:00,58.3,57.9,30.06,ESE,116,0.0,0.0,99,0.00,,,0.22,0.0,meteohub,2013-06-22 14:58:00,
2013-06-22 05:03:00,57.9,57.4,30.06,East,84,0.0,0.0,98,0.01,,,0.23,0.0,meteohub,2013-06-22 15:03:00,
2013-06-22 05:08:00,57.6,57.0,30.06,ESE,111,0.0,0.0,98,0.01,,,0.23,0.0,meteohub,2013-06-22 15:08:00,
2013-06-22 05:13:00,57.4,56.8,30.06,East,94,0.0,0.0,98,0.01,,,0.23,0.0,meteohub,2013-06-22 15:13:00,
2013-06-22 05:18:00,57.6,57.0,30.06,ESE,103,0.0,0.0,98,0.01,,,0.23,0.0,meteohub,2013-06-22 15:18:00,
2013-06-22 05:23:00,57.6,57.0,30.06,East,80,0.0,0.0,98,0.01,,,0.23,0.0,meteohub,2013-06-22 15:23:00,
2013-06-22 05:28:00,57.6,57.0,30.06,East,83,0.0,0.0,98,0.01,,,0.23,0.0,meteohub,2013-06-22 15:28:00,
2013-06-22 05:33:00,57.4,56.8,30.06,East,92,0.0,0.0,98,0.01,,,0.23,0.0,meteohub,2013-06-22 15:33:00,
2013-06-22 05:38:00,57.4,56.8,30.06,ESE,112,0.0,0.0,98,0.01,,,0.23,0.0,meteohub,2013-06-22 15:38:00,
2013-06-22 05:43:00,57.2,56.7,30.07,East,97,0.0,0.0,98,0.01,,,0.23,0.0,meteohub,2013-06-22 15:43:00,
2013-06-22 05:48:00,56.8,56.3,30.07,East,85,0.0,0.0,98,0.01,,,0.23,0.0,meteohub,2013-06-22 15:48:00,
2013-06-22 05:53:00,56.8,55.9,30.06,ESE,105,0.0,0.0,97,0.01,,,0.23,0.0,meteohub,2013-06-22 15:53:00,
2013-06-22 05:59:00,56.8,55.9,30.07,East,84,0.0,0.0,97,0.01,,,0.23,0.0,meteohub,2013-06-22 15:59:00,
2013-06-22 06:04:00,56.8,56.3,30.07,ENE,72,0.0,0.0,98,0.00,,,0.23,7.0,meteohub,2013-06-22 16:04:00,
2013-06-22 06:09:00,56.7,55.8,30.07,East,100,0.0,0.0,97,0.00,,,0.23,16.0,meteohub,2013-06-22 16:09:00,
2013-06-22 06:14:00,56.7,55.8,30.07,East,90,0.0,0.0,97,0.00,,,0.23,18.0,meteohub,2013-06-22 16:14:00,
2013-06-22 06:19:00,56.5,55.6,30.07,East,86,0.0,0.0,97,0.00,,,0.23,16.0,meteohub,2013-06-22 16:19:00,
2013-06-22 06:24:00,56.1,55.2,30.07,ESE,105,0.0,0.0,97,0.00,,,0.23,14.0,meteohub,2013-06-22 16:24:00,
2013-06-22 06:29:00,55.8,54.7,30.08,ESE,110,0.0,0.0,96,0.00,,,0.23,16.0,meteohub,2013-06-22 16:29:00,
2013-06-22 06:34:00,55.6,54.5,30.08,ENE,74,0.0,0.0,96,0.00,,,0.23,16.0,meteohub,2013-06-22 16:34:00,
2013-06-22 06:39:00,55.2,53.8,30.08,East,82,0.0,0.0,95,0.00,,,0.23,19.0,meteohub,2013-06-22 16:39:00,
2013-06-22 06:44:00,55.0,54.0,30.08,ENE,78,0.0,0.0,96,0.00,,,0.23,25.0,meteohub,2013-06-22 16:44:00,
2013-06-22 06:49:00,55.0,54.1,30.08,East,90,0.0,0.0,97,0.00,,,0.23,18.0,meteohub,2013-06-22 16:49:00,
2013-06-22 06:54:00,55.4,54.5,30.08,East,90,0.0,0.0,97,0.00,,,0.23,18.0,meteohub,2013-06-22 16:54:00,
2013-06-22 06:59:00,55.4,54.5,30.09,East,81,0.0,0.0,97,0.00,,,0.23,19.0,meteohub,2013-06-22 16:59:00,
2013-06-22 07:04:00,55.8,54.9,30.09,ESE,103,0.0,0.0,97,0.00,,,0.23,19.0,meteohub,2013-06-22 17:04:00,
2013-06-22 07:09:00,55.9,55.0,30.09,East,88,0.0,0.0,97,0.00,,,0.23,21.0,meteohub,2013-06-22 17:09:00,
2013-06-22 07:14:00,56.1,55.2,30.09,East,89,0.0,0.0,97,0.00,,,0.23,23.0,meteohub,2013-06-22 17:14:00,
2013-06-22 07:19:00,56.1,55.2,30.09,East,90,0.0,0.0,97,0.00,,,0.23,28.0,meteohub,2013-06-22 17:19:00,
2013-06-22 07:24:00,56.3,55.8,30.09,East,88,0.0,0.0,98,0.00,,,0.23,39.0,meteohub,2013-06-22 17:24:00,
2013-06-22 07:29:00,57.2,56.7,30.09,East,88,0.0,0.0,98,0.00,,,0.23,51.0,meteohub,2013-06-22 17:29:00,
2013-06-22 07:34:00,57.9,57.6,30.09,East,88,0.0,0.0,99,0.00,,,0.23,90.0,meteohub,2013-06-22 17:34:00,
2013-06-22 07:39:00,59.0,58.5,30.09,East,88,0.0,0.0,98,0.00,,,0.23,111.0,meteohub,2013-06-22 17:39:00,
2013-06-22 07:44:00,60.4,60.1,30.10,WNW,299,0.0,0.0,99,0.00,,,0.23,185.0,meteohub,2013-06-22 17:44:00,
2013-06-22 07:49:00,61.0,60.4,30.10,WNW,286,0.0,0.0,98,0.00,,,0.23,114.0,meteohub,2013-06-22 17:49:00,
2013-06-22 07:54:00,61.2,60.3,30.09,WNW,285,0.0,0.0,97,0.00,,,0.23,125.0,meteohub,2013-06-22 17:54:00,
2013-06-22 07:59:00,61.2,60.3,30.10,WNW,286,0.0,0.0,97,0.00,,,0.23,139.0,meteohub,2013-06-22 17:59:00,
2013-06-22 08:04:00,61.2,60.1,30.10,WNW,286,0.0,0.0,96,0.00,,,0.23,109.0,meteohub,2013-06-22 18:04:00,
2013-06-22 08:09:00,61.3,60.3,30.10,NNW,348,0.0,0.0,96,0.00,,,0.23,84.0,meteohub,2013-06-22 18:09:00,
2013-06-22 08:14:00,61.3,60.3,30.10,NNW,348,0.0,0.0,96,0.00,,,0.23,77.0,meteohub,2013-06-22 18:14:00,
2013-06-22 08:19:00,62.2,61.2,30.09,NNW,343,0.0,0.0,96,0.00,,,0.23,102.0,meteohub,2013-06-22 18:19:00,
2013-06-22 08:24:00,62.8,61.0,30.09,West,272,0.0,0.0,94,0.00,,,0.23,93.0,meteohub,2013-06-22 18:24:00,
2013-06-22 08:29:00,63.1,61.2,30.09,WNW,288,0.0,0.0,93,0.00,,,0.23,37.0,meteohub,2013-06-22 18:29:00,
2013-06-22 08:34:00,63.1,60.8,30.09,West,269,0.0,0.0,92,0.00,,,0.23,65.0,meteohub,2013-06-22 18:34:00,
2013-06-22 08:39:00,63.3,61.0,30.09,West,268,0.0,0.0,92,0.00,,,0.23,107.0,meteohub,2013-06-22 18:39:00,
2013-06-22 08:44:00,63.5,60.8,30.09,West,263,0.0,0.0,91,0.00,,,0.23,98.0,meteohub,2013-06-22 18:44:00,
2013-06-22 08:49:00,63.7,61.3,30.09,West,267,0.0,0.0,92,0.00,,,0.23,237.0,meteohub,2013-06-22 18:49:00,
2013-06-22 08:54:00,64.4,62.1,30.10,SW,220,0.0,0.0,92,0.00,,,0.23,181.0,meteohub,2013-06-22 18:54:00,
2013-06-22 08:59:00,64.2,61.5,30.09,WSW,238,0.0,0.0,91,0.00,,,0.23,116.0,meteohub,2013-06-22 18:59:00,
2013-06-22 09:04:00,64.2,61.0,30.09,WSW,239,0.0,0.0,89,0.00,,,0.23,155.0,meteohub,2013-06-22 19:04:00,
2013-06-22 09:09:00,64.6,61.3,30.09,WSW,244,0.0,0.0,89,0.00,,,0.23,197.0,meteohub,2013-06-22 19:09:00,
2013-06-22 09:14:00,64.9,61.9,30.09,WSW,252,0.0,0.0,90,0.00,,,0.23,241.0,meteohub,2013-06-22 19:14:00,
2013-06-22 09:19:00,64.9,61.7,30.10,West,263,0.0,0.0,89,0.00,,,0.23,211.0,meteohub,2013-06-22 19:19:00,
2013-06-22 09:24:00,64.9,61.9,30.10,West,261,0.0,0.0,90,0.00,,,0.23,221.0,meteohub,2013-06-22 19:24:00,
2013-06-22 09:29:00,64.8,61.7,30.10,WSW,242,0.0,0.0,90,0.00,,,0.23,239.0,meteohub,2013-06-22 19:29:00,
2013-06-22 09:34:00,64.6,61.9,30.11,WNW,284,0.0,0.0,91,0.00,,,0.23,186.0,meteohub,2013-06-22 19:34:00,
2013-06-22 09:39:00,64.4,62.1,30.11,West,268,0.0,0.0,92,0.00,,,0.23,167.0,meteohub,2013-06-22 19:39:00,
2013-06-22 09:44:00,64.2,61.9,30.11,West,268,0.0,0.0,92,0.00,,,0.23,130.0,meteohub,2013-06-22 19:44:00,
2013-06-22 09:50:00,64.6,62.2,30.11,West,278,0.0,0.0,92,0.00,,,0.23,111.0,meteohub,2013-06-22 19:50:00,
2013-06-22 09:55:00,64.4,62.4,30.11,NW,315,0.0,0.0,93,0.00,,,0.23,79.0,meteohub,2013-06-22 19:55:00,
2013-06-22 10:00:00,64.0,61.7,30.11,NW,308,0.0,0.0,92,0.00,,,0.23,86.0,meteohub,2013-06-22 20:00:00,
2013-06-22 10:05:00,63.9,61.9,30.11,WNW,288,0.0,0.0,93,0.00,,,0.23,137.0,meteohub,2013-06-22 20:05:00,
2013-06-22 10:10:00,63.7,61.7,30.11,WNW,288,0.0,0.0,93,0.00,,,0.23,197.0,meteohub,2013-06-22 20:10:00,
2013-06-22 10:15:00,63.9,62.1,30.11,West,265,0.0,0.0,94,0.00,,,0.23,237.0,meteohub,2013-06-22 20:15:00,
2013-06-22 10:20:00,63.9,61.9,30.11,SW,223,0.0,0.0,93,0.00,,,0.23,181.0,meteohub,2013-06-22 20:20:00,
2013-06-22 10:25:00,63.9,61.9,30.11,WSW,254,0.0,0.0,93,0.00,,,0.23,165.0,meteohub,2013-06-22 20:25:00,
2013-06-22 10:30:00,63.9,61.9,30.11,WSW,252,0.0,0.0,93,0.00,,,0.23,188.0,meteohub,2013-06-22 20:30:00,
2013-06-22 10:35:00,63.9,61.5,30.11,WSW,242,0.0,0.0,92,0.00,,,0.23,225.0,meteohub,2013-06-22 20:35:00,
2013-06-22 10:40:00,64.0,61.7,30.11,WSW,243,0.0,0.0,92,0.00,,,0.23,223.0,meteohub,2013-06-22 20:40:00,
2013-06-22 10:45:00,64.2,61.9,30.11,West,273,0.0,0.0,92,0.00,,,0.23,237.0,meteohub,2013-06-22 20:45:00,
2013-06-22 10:50:00,64.8,62.1,30.11,WNW,284,0.0,0.0,91,0.00,,,0.23,271.0,meteohub,2013-06-22 20:50:00,
2013-06-22 10:55:00,64.9,61.7,30.11,WSW,256,0.0,0.0,89,0.00,,,0.23,334.0,meteohub,2013-06-22 20:55:00,
2013-06-22 11:00:00,65.1,61.5,30.11,WSW,258,0.0,0.0,88,0.00,,,0.23,369.0,meteohub,2013-06-22 21:00:00,
2013-06-22 11:05:00,65.7,62.6,30.11,SW,216,0.0,0.0,90,0.00,,,0.23,411.0,meteohub,2013-06-22 21:05:00,
2013-06-22 11:10:00,66.0,62.6,30.12,West,259,0.0,0.0,89,0.00,,,0.23,336.0,meteohub,2013-06-22 21:10:00,
2013-06-22 11:15:00,66.4,63.0,30.12,West,268,0.0,0.0,89,0.00,,,0.23,272.0,meteohub,2013-06-22 21:15:00,
2013-06-22 11:20:00,66.6,63.1,30.12,West,274,0.0,0.0,89,0.00,,,0.23,209.0,meteohub,2013-06-22 21:20:00,
2013-06-22 11:25:00,66.6,63.1,30.11,WNW,286,0.0,0.0,89,0.00,,,0.23,220.0,meteohub,2013-06-22 21:25:00,
2013-06-22 11:30:00,66.4,63.0,30.12,WNW,293,0.0,0.0,89,0.00,,,0.23,199.0,meteohub,2013-06-22 21:30:00,
2013-06-22 11:35:00,66.4,63.0,30.11,WNW,285,0.0,0.0,89,0.00,,,0.23,207.0,meteohub,2013-06-22 21:35:00,
2013-06-22 11:40:00,66.2,62.8,30.11,WSW,242,0.0,0.0,89,0.00,,,0.23,283.0,meteohub,2013-06-22 21:40:00,
2013-06-22 11:45:00,66.0,63.0,30.11,West,261,0.0,0.0,90,0.00,,,0.23,265.0,meteohub,2013-06-22 21:45:00,
2013-06-22 11:50:00,66.0,62.6,30.11,WSW,253,0.0,0.0,89,0.00,,,0.23,185.0,meteohub,2013-06-22 21:50:00,
2013-06-22 11:55:00,65.8,62.4,30.11,West,280,0.0,0.0,89,0.00,,,0.23,206.0,meteohub,2013-06-22 21:55:00,
2013-06-22 12:00:00,65.8,62.8,30.11,West,277,0.0,0.0,90,0.00,,,0.23,202.0,meteohub,2013-06-22 22:00:00,
2013-06-22 12:05:00,66.0,62.6,30.11,West,277,0.0,0.0,89,0.00,,,0.23,193.0,meteohub,2013-06-22 22:05:00,
2013-06-22 12:10:00,66.2,62.6,30.11,West,278,0.0,0.0,88,0.00,,,0.23,234.0,meteohub,2013-06-22 22:10:00,
2013-06-22 12:15:00,66.0,62.1,30.11,West,277,0.0,0.0,87,0.00,,,0.23,283.0,meteohub,2013-06-22 22:15:00,
2013-06-22 12:20:00,66.6,63.0,30.11,West,278,0.0,0.0,88,0.00,,,0.23,357.0,meteohub,2013-06-22 22:20:00,
2013-06-22 12:25:00,66.7,62.8,30.11,NW,312,0.0,0.0,87,0.00,,,0.23,348.0,meteohub,2013-06-22 22:25:00,
2013-06-22 12:30:00,67.1,63.1,30.10,WNW,302,0.0,0.0,87,0.00,,,0.23,364.0,meteohub,2013-06-22 22:30:00,
2013-06-22 12:35:00,67.3,63.0,30.10,SW,235,0.0,0.0,86,0.00,,,0.23,311.0,meteohub,2013-06-22 22:35:00,
2013-06-22 12:40:00,67.5,63.1,30.10,WNW,290,0.0,0.0,86,0.00,,,0.23,322.0,meteohub,2013-06-22 22:40:00,
2013-06-22 12:45:00,67.6,63.0,30.10,WSW,247,0.0,0.0,85,0.00,,,0.23,330.0,meteohub,2013-06-22 22:45:00,
2013-06-22 12:50:00,67.8,63.5,30.10,SSW,213,0.0,0.0,86,0.00,,,0.23,320.0,meteohub,2013-06-22 22:50:00,
2013-06-22 12:55:00,67.6,63.0,30.10,WNW,283,0.0,0.0,85,0.00,,,0.23,320.0,meteohub,2013-06-22 22:55:00,
2013-06-22 13:01:00,67.8,63.5,30.10,WSW,252,0.0,0.0,86,0.00,,,0.23,253.0,meteohub,2013-06-22 23:01:00,
2013-06-22 13:06:00,67.6,62.6,30.10,SW,229,0.0,0.0,84,0.00,,,0.23,234.0,meteohub,2013-06-22 23:06:00,
2013-06-22 13:11:00,67.6,62.6,30.10,WSW,252,0.0,0.0,84,0.00,,,0.23,237.0,meteohub,2013-06-22 23:11:00,
2013-06-22 13:16:00,67.6,63.0,30.10,SW,229,0.0,0.0,85,0.00,,,0.23,299.0,meteohub,2013-06-22 23:16:00,
2013-06-22 13:21:00,67.6,63.0,30.10,SW,234,0.0,0.0,85,0.00,,,0.23,272.0,meteohub,2013-06-22 23:21:00,
2013-06-22 13:26:00,67.3,63.0,30.10,West,263,0.0,0.0,86,0.00,,,0.23,274.0,meteohub,2013-06-22 23:26:00,
2013-06-22 13:31:00,67.1,62.8,30.09,SW,223,0.0,0.0,86,0.00,,,0.23,355.0,meteohub,2013-06-22 23:31:00,
2013-06-22 13:36:00,67.1,63.1,30.09,SW,232,0.0,0.0,87,0.00,,,0.23,373.0,meteohub,2013-06-22 23:36:00,
2013-06-22 13:41:00,67.1,62.8,30.09,SW,227,0.0,0.0,86,0.00,,,0.23,519.0,meteohub,2013-06-22 23:41:00,
2013-06-22 13:46:00,67.5,63.1,30.09,WSW,237,0.0,0.0,86,0.00,,,0.23,527.0,meteohub,2013-06-22 23:46:00,
2013-06-22 13:51:00,67.6,63.3,30.09,SSW,210,0.0,0.0,86,0.00,,,0.23,459.0,meteohub,2013-06-22 23:51:00,
2013-06-22 13:56:00,67.8,63.1,30.09,SW,227,0.0,0.0,85,0.00,,,0.23,369.0,meteohub,2013-06-22 23:56:00,
2013-06-22 14:01:00,67.8,63.1,30.09,SW,217,0.0,0.0,85,0.00,,,0.23,446.0,meteohub,2013-06-23 00:01:00,
2013-06-22 14:06:00,68.0,63.3,30.09,SW,236,0.0,0.0,85,0.00,,,0.00,427.0,meteohub,2013-06-23 00:06:00,
2013-06-22 14:11:00,68.2,63.1,30.08,SW,219,0.0,0.0,84,0.00,,,0.00,279.0,meteohub,2013-06-23 00:11:00,
2013-06-22 14:16:00,68.2,63.1,30.08,West,271,0.0,0.0,84,0.00,,,0.00,339.0,meteohub,2013-06-23 00:16:00,
2013-06-22 14:21:00,68.4,63.3,30.08,West,268,0.0,0.0,84,0.00,,,0.00,381.0,meteohub,2013-06-23 00:21:00,
2013-06-22 14:26:00,68.5,63.5,30.08,WSW,238,0.0,0.0,84,0.00,,,0.00,352.0,meteohub,2013-06-23 00:26:00,
2013-06-22 14:31:00,68.4,63.3,30.08,SW,227,0.0,0.0,84,0.00,,,0.00,204.0,meteohub,2013-06-23 00:31:00,
2013-06-22 14:36:00,68.2,63.1,30.08,SSW,198,0.0,0.0,84,0.00,,,0.00,186.0,meteohub,2013-06-23 00:36:00,
2013-06-22 14:41:00,68.0,63.0,30.08,SW,227,0.0,0.0,84,0.00,,,0.00,174.0,meteohub,2013-06-23 00:41:00,
2013-06-22 14:46:00,67.6,63.0,30.07,SW,224,0.0,0.0,85,0.00,,,0.00,186.0,meteohub,2013-06-23 00:46:00,
2013-06-22 14:51:00,67.5,62.4,30.07,SSW,204,0.0,0.0,84,0.00,,,0.00,160.0,meteohub,2013-06-23 00:51:00,
2013-06-22 14:56:00,67.3,62.6,30.08,SW,215,0.0,0.0,85,0.00,,,0.00,109.0,meteohub,2013-06-23 00:56:00,
2013-06-22 15:01:00,67.3,63.3,30.07,SSW,207,0.0,0.0,87,0.00,,,0.00,167.0,meteohub,2013-06-23 01:01:00,
2013-06-22 15:06:00,67.1,63.5,30.07,SSE,160,0.0,0.0,88,0.00,,,0.00,172.0,meteohub,2013-06-23 01:06:00,
2013-06-22 15:11:00,66.7,63.1,30.07,SSW,206,0.0,0.0,88,0.00,,,0.00,160.0,meteohub,2013-06-23 01:11:00,
2013-06-22 15:16:00,66.7,63.3,30.07,SSW,206,0.0,0.0,89,0.00,,,0.00,163.0,meteohub,2013-06-23 01:16:00,
2013-06-22 15:21:00,66.9,63.3,30.07,West,259,0.0,0.0,88,0.00,,,0.00,116.0,meteohub,2013-06-23 01:21:00,
2013-06-22 15:26:00,66.7,63.1,30.07,SW,223,0.0,0.0,88,0.00,,,0.00,104.0,meteohub,2013-06-23 01:26:00,
2013-06-22 15:31:00,66.7,63.3,30.07,SE,124,0.0,0.0,89,0.00,,,0.00,65.0,meteohub,2013-06-23 01:31:00,
2013-06-22 15:36:00,66.4,63.0,30.07,SE,141,0.0,0.0,89,0.00,,,0.00,58.0,meteohub,2013-06-23 01:36:00,
2013-06-22 15:41:00,66.0,63.0,30.07,SE,143,0.0,0.0,90,0.00,,,0.00,63.0,meteohub,2013-06-23 01:41:00,
2013-06-22 15:46:00,66.2,63.1,30.07,SSE,159,0.0,0.0,90,0.00,,,0.00,86.0,meteohub,2013-06-23 01:46:00,
2013-06-22 15:51:00,66.2,62.8,30.07,SSE,165,0.0,0.0,89,0.00,,,0.00,111.0,meteohub,2013-06-23 01:51:00,
2013-06-22 15:56:00,66.2,62.8,30.07,SSE,165,0.0,0.0,89,0.00,,,0.00,93.0,meteohub,2013-06-23 01:56:00,
2013-06-22 16:01:00,66.0,62.6,30.07,SSE,165,0.0,0.0,89,0.00,,,0.00,84.0,meteohub,2013-06-23 02:01:00,
2013-06-22 16:07:00,66.0,63.0,30.07,SSW,199,0.0,0.0,90,0.00,,,0.00,84.0,meteohub,2013-06-23 02:07:00,
2013-06-22 16:12:00,66.2,63.1,30.07,SW,236,0.0,0.0,90,0.00,,,0.00,60.0,meteohub,2013-06-23 02:12:00,
2013-06-22 16:17:00,66.0,63.0,30.07,SW,235,0.0,0.0,90,0.00,,,0.00,53.0,meteohub,2013-06-23 02:17:00,
2013-06-22 16:22:00,66.0,63.3,30.07,SW,234,0.0,0.0,91,0.00,,,0.00,39.0,meteohub,2013-06-23 02:22:00,
2013-06-22 16:27:00,65.8,63.5,30.07,SW,234,0.0,0.0,92,0.00,,,0.00,32.0,meteohub,2013-06-23 02:27:00,
2013-06-22 16:32:00,65.7,63.3,30.07,SW,234,0.0,0.0,92,0.00,,,0.00,25.0,meteohub,2013-06-23 02:32:00,
2013-06-22 16:37:00,65.5,63.3,30.07,SW,236,0.0,0.0,93,0.00,,,0.00,25.0,meteohub,2013-06-23 02:37:00,
2013-06-22 16:42:00,65.3,63.1,30.07,South,172,0.0,0.0,93,0.00,,,0.00,47.0,meteohub,2013-06-23 02:42:00,
2013-06-22 16:47:00,64.9,63.1,30.07,SSW,198,0.0,0.0,94,0.01,,,0.00,47.0,meteohub,2013-06-23 02:47:00,
2013-06-22 16:52:00,64.9,63.1,30.07,South,184,0.0,0.0,94,0.01,,,0.01,40.0,meteohub,2013-06-23 02:52:00,
2013-06-22 16:57:00,64.6,62.8,30.07,SSW,192,0.0,0.0,94,0.01,,,0.01,47.0,meteohub,2013-06-23 02:57:00,
2013-06-22 17:02:00,64.2,62.8,30.07,South,180,0.0,0.0,95,0.01,,,0.01,56.0,meteohub,2013-06-23 03:02:00,
2013-06-22 17:07:00,64.2,62.8,30.08,South,188,0.0,0.0,95,0.01,,,0.01,58.0,meteohub,2013-06-23 03:07:00,
2013-06-22 17:12:00,64.2,63.1,30.08,SSW,204,0.0,0.0,96,0.01,,,0.01,62.0,meteohub,2013-06-23 03:12:00,
2013-06-22 17:17:00,64.2,63.1,30.08,SSE,147,0.0,0.0,96,0.01,,,0.01,60.0,meteohub,2013-06-23 03:17:00,
2013-06-22 17:22:00,64.0,63.0,30.08,SSE,155,0.0,0.0,96,0.01,,,0.01,62.0,meteohub,2013-06-23 03:22:00,
2013-06-22 17:27:00,63.9,62.8,30.08,SSE,163,0.0,0.0,96,0.01,,,0.01,63.0,meteohub,2013-06-23 03:27:00,
2013-06-22 17:32:00,63.7,62.6,30.08,SE,142,0.0,0.0,96,0.01,,,0.01,76.0,meteohub,2013-06-23 03:32:00,
2013-06-22 17:37:00,63.7,62.6,30.08,South,182,0.0,0.0,96,0.01,,,0.01,77.0,meteohub,2013-06-23 03:37:00,
2013-06-22 17:42:00,63.9,63.0,30.08,South,181,0.0,0.0,97,0.01,,,0.01,63.0,meteohub,2013-06-23 03:42:00,
2013-06-22 17:47:00,64.0,63.1,30.08,SW,222,0.0,0.0,97,0.00,,,0.01,53.0,meteohub,2013-06-23 03:47:00,
2013-06-22 17:52:00,64.0,63.1,30.08,SW,221,0.0,0.0,97,0.00,,,0.01,51.0,meteohub,2013-06-23 03:52:00,
2013-06-22 17:57:00,64.2,63.1,30.09,SW,223,0.0,0.0,96,0.00,,,0.01,44.0,meteohub,2013-06-23 03:57:00,
2013-06-22 18:01:00,64.4,63.5,30.09,SW,223,0.0,0.0,97,0.00,,,0.01,37.0,meteohub,2013-06-23 04:01:00,
2013-06-22 18:02:00,64.4,63.5,30.09,SW,222,0.0,0.0,97,0.00,,,0.01,37.0,meteohub,2013-06-23 04:02:00,
2013-06-22 18:07:00,64.4,63.3,30.09,SW,223,0.0,0.0,96,0.00,,,0.01,33.0,meteohub,2013-06-23 04:07:00,
2013-06-22 18:12:00,64.4,63.3,30.09,SW,222,0.0,0.0,96,0.00,,,0.01,35.0,meteohub,2013-06-23 04:12:00,
2013-06-22 18:17:00,64.2,63.1,30.09,SW,222,0.0,0.0,96,0.00,,,0.01,28.0,meteohub,2013-06-23 04:17:00,
2013-06-22 18:22:00,64.4,63.3,30.10,SW,223,0.0,0.0,96,0.00,,,0.01,28.0,meteohub,2013-06-23 04:22:00,
2013-06-22 18:27:00,64.4,63.3,30.10,SW,222,0.0,0.0,96,0.00,,,0.01,33.0,meteohub,2013-06-23 04:27:00,
2013-06-22 18:32:00,64.4,63.3,30.10,SW,222,0.0,0.0,96,0.00,,,0.01,25.0,meteohub,2013-06-23 04:32:00,
2013-06-22 18:37:00,64.2,63.1,30.10,SE,136,0.0,0.0,96,0.00,,,0.01,16.0,meteohub,2013-06-23 04:37:00,
2013-06-22 18:42:00,64.0,62.6,30.10,South,185,0.0,0.0,95,0.00,,,0.01,11.0,meteohub,2013-06-23 04:42:00,
2013-06-22 18:47:00,64.0,63.0,30.11,South,185,0.0,0.0,96,0.00,,,0.01,9.0,meteohub,2013-06-23 04:47:00,
2013-06-22 18:52:00,63.9,62.8,30.11,SE,139,0.0,0.0,96,0.00,,,0.01,7.0,meteohub,2013-06-23 04:52:00,
2013-06-22 18:57:00,63.7,62.8,30.11,SE,138,0.0,0.0,97,0.00,,,0.01,5.0,meteohub,2013-06-23 04:57:00,
2013-06-22 19:02:00,63.7,62.6,30.11,SSE,152,0.0,0.0,96,0.00,,,0.01,0.0,meteohub,2013-06-23 05:02:00,
2013-06-22 19:07:00,63.5,62.6,30.11,SSE,153,0.0,0.0,97,0.00,,,0.01,0.0,meteohub,2013-06-23 05:07:00,
2013-06-22 19:12:00,63.3,62.4,30.11,SSE,153,0.0,0.0,97,0.00,,,0.01,0.0,meteohub,2013-06-23 05:12:00,
2013-06-22 19:18:00,63.3,62.4,30.11,SSE,153,0.0,0.0,97,0.00,,,0.01,0.0,meteohub,2013-06-23 05:18:00,
2013-06-22 19:23:00,63.1,62.2,30.11,SSE,167,0.0,0.0,97,0.00,,,0.01,0.0,meteohub,2013-06-23 05:23:00,
2013-06-22 19:28:00,63.1,62.2,30.11,SSE,165,0.0,0.0,97,0.00,,,0.01,0.0,meteohub,2013-06-23 05:28:00,
2013-06-22 19:33:00,63.0,62.1,30.12,SSE,165,0.0,0.0,97,0.00,,,0.01,0.0,meteohub,2013-06-23 05:33:00,
2013-06-22 19:38:00,63.0,62.1,30.12,SSE,164,0.0,0.0,97,0.00,,,0.01,0.0,meteohub,2013-06-23 05:38:00,
2013-06-22 19:43:00,63.0,62.1,30.12,SSE,165,0.0,0.0,97,0.00,,,0.01,0.0,meteohub,2013-06-23 05:43:00,
2013-06-22 19:48:00,63.0,62.1,30.12,SSE,167,0.0,0.0,97,0.00,,,0.01,0.0,meteohub,2013-06-23 05:48:00,
2013-06-22 19:53:00,63.0,62.4,30.12,SSE,165,0.0,0.0,98,0.00,,,0.01,0.0,meteohub,2013-06-23 05:53:00,
2013-06-22 19:58:00,63.0,62.4,30.12,SSE,165,0.0,0.0,98,0.00,,,0.01,0.0,meteohub,2013-06-23 05:58:00,
2013-06-22 20:01:00,63.0,62.4,30.12,SSE,165,0.0,0.0,98,0.00,,,0.01,0.0,meteohub,2013-06-23 06:01:00,
2013-06-22 20:06:00,63.0,62.4,30.12,SSE,165,0.0,0.0,98,0.00,,,0.01,0.0,meteohub,2013-06-23 06:06:00,
2013-06-22 20:11:00,62.8,62.2,30.12,SSE,165,0.0,0.0,98,0.00,,,0.01,0.0,meteohub,2013-06-23 06:11:00,
2013-06-22 20:16:00,62.8,61.9,30.12,SSE,164,0.0,0.0,97,0.00,,,0.01,0.0,meteohub,2013-06-23 06:16:00,
2013-06-22 20:21:00,62.6,61.7,30.13,SSE,163,0.0,0.0,97,0.00,,,0.01,0.0,meteohub,2013-06-23 06:21:00,
2013-06-22 20:26:00,62.4,61.5,30.13,SSE,165,0.0,0.0,97,0.00,,,0.01,0.0,meteohub,2013-06-23 06:26:00,
2013-06-22 20:31:00,62.4,61.5,30.13,SSE,164,0.0,0.0,97,0.00,,,0.01,0.0,meteohub,2013-06-23 06:31:00,
2013-06-22 20:36:00,62.2,61.3,30.13,SSE,163,0.0,0.0,97,0.00,,,0.01,0.0,meteohub,2013-06-23 06:36:00,
2013-06-22 20:41:00,62.2,61.3,30.13,SSE,165,0.0,0.0,97,0.00,,,0.01,0.0,meteohub,2013-06-23 06:41:00,
2013-06-22 20:46:00,62.1,61.2,30.13,SSE,165,0.0,0.0,97,0.00,,,0.01,0.0,meteohub,2013-06-23 06:46:00,
2013-06-22 20:51:00,61.9,61.0,30.13,SSE,165,0.0,0.0,97,0.00,,,0.01,0.0,meteohub,2013-06-23 06:51:00,
2013-06-22 20:56:00,61.9,61.3,30.13,SSE,163,0.0,0.0,98,0.00,,,0.01,0.0,meteohub,2013-06-23 06:56:00,
2013-06-22 21:01:00,61.7,60.8,30.13,SSE,163,0.0,0.0,97,0.00,,,0.01,0.0,meteohub,2013-06-23 07:01:00,
2013-06-22 21:06:00,61.5,60.6,30.13,SSE,163,0.0,0.0,97,0.00,,,0.01,0.0,meteohub,2013-06-23 07:06:00,
2013-06-22 21:11:00,61.5,61.0,30.13,SSE,166,0.0,0.0,98,0.00,,,0.01,0.0,meteohub,2013-06-23 07:11:00,
2013-06-22 21:16:00,61.5,61.0,30.14,SSE,163,0.0,0.0,98,0.00,,,0.01,0.0,meteohub,2013-06-23 07:16:00,
2013-06-22 21:21:00,60.8,59.7,30.14,ESE,104,0.0,0.0,96,0.00,,,0.01,0.0,meteohub,2013-06-23 07:21:00,
2013-06-22 21:26:00,60.4,59.4,30.14,East,101,0.0,0.0,96,0.00,,,0.01,0.0,meteohub,2013-06-23 07:26:00,
2013-06-22 21:31:00,60.1,58.6,30.14,ENE,78,0.0,0.0,95,0.00,,,0.01,0.0,meteohub,2013-06-23 07:31:00,
2013-06-22 21:36:00,59.7,57.9,30.14,ENE,77,0.0,0.0,94,0.00,,,0.01,0.0,meteohub,2013-06-23 07:36:00,
2013-06-22 21:41:00,59.5,57.6,30.14,ESE,110,0.0,0.0,93,0.00,,,0.01,0.0,meteohub,2013-06-23 07:41:00,
2013-06-22 21:46:00,59.5,57.7,30.14,ESE,114,0.0,0.0,94,0.00,,,0.01,0.0,meteohub,2013-06-23 07:46:00,
2013-06-22 21:51:00,59.5,58.1,30.15,ESE,115,0.0,0.0,95,0.00,,,0.01,0.0,meteohub,2013-06-23 07:51:00,
2013-06-22 21:56:00,59.5,58.1,30.15,East,83,0.0,0.0,95,0.00,,,0.01,0.0,meteohub,2013-06-23 07:56:00,
2013-06-22 22:01:00,59.4,57.4,30.15,ESE,105,0.0,0.0,93,0.00,,,0.01,0.0,meteohub,2013-06-23 08:01:00,
2013-06-22 22:06:00,59.4,57.0,30.15,East,84,0.0,0.0,92,0.00,,,0.01,0.0,meteohub,2013-06-23 08:06:00,
2013-06-22 22:11:00,59.2,57.2,30.15,East,82,0.0,0.0,93,0.00,,,0.01,0.0,meteohub,2013-06-23 08:11:00,
2013-06-22 22:16:00,59.2,57.2,30.15,East,94,0.0,0.0,93,0.00,,,0.01,0.0,meteohub,2013-06-23 08:16:00,
2013-06-22 22:22:00,59.2,56.8,30.15,East,87,0.0,0.0,92,0.00,,,0.01,0.0,meteohub,2013-06-23 08:22:00,
2013-06-22 22:27:00,59.0,57.0,30.15,East,101,0.0,0.0,93,0.00,,,0.01,0.0,meteohub,2013-06-23 08:27:00,
2013-06-22 22:32:00,58.8,56.5,30.15,East,85,0.0,0.0,92,0.00,,,0.01,0.0,meteohub,2013-06-23 08:32:00,
2013-06-22 22:37:00,58.6,56.3,30.15,ENE,73,0.0,0.0,92,0.00,,,0.01,0.0,meteohub,2013-06-23 08:37:00,
2013-06-22 22:42:00,58.6,56.3,30.15,East,83,0.0,0.0,92,0.00,,,0.01,0.0,meteohub,2013-06-23 08:42:00,
2013-06-22 22:47:00,58.3,55.9,30.15,ENE,76,0.0,0.0,92,0.00,,,0.01,0.0,meteohub,2013-06-23 08:47:00,
2013-06-22 22:52:00,57.9,55.2,30.15,East,93,0.0,0.0,91,0.00,,,0.01,0.0,meteohub,2013-06-23 08:52:00,
2013-06-22 22:57:00,57.7,55.2,30.15,ENE,76,0.0,0.0,91,0.00,,,0.01,0.0,meteohub,2013-06-23 08:57:00,
2013-06-22 23:02:00,57.6,55.2,30.15,ENE,74,0.0,0.0,92,0.00,,,0.01,0.0,meteohub,2013-06-23 09:02:00,
2013-06-22 23:07:00,57.4,54.9,30.15,East,85,0.0,0.0,91,0.00,,,0.01,0.0,meteohub,2013-06-23 09:07:00,
2013-06-22 23:12:00,57.2,54.3,30.16,East,85,0.0,0.0,90,0.00,,,0.01,0.0,meteohub,2013-06-23 09:12:00,
2013-06-22 23:17:00,56.8,54.0,30.15,ENE,76,0.0,0.0,90,0.00,,,0.01,0.0,meteohub,2013-06-23 09:17:00,
2013-06-22 23:22:00,56.8,54.0,30.15,East,89,0.0,0.0,90,0.00,,,0.01,0.0,meteohub,2013-06-23 09:22:00,
2013-06-22 23:27:00,56.7,54.1,30.15,East,83,0.0,0.0,91,0.00,,,0.01,0.0,meteohub,2013-06-23 09:27:00,
2013-06-22 23:32:00,56.5,53.2,30.15,East,90,0.0,0.0,89,0.00,,,0.01,0.0,meteohub,2013-06-23 09:32:00,
2013-06-22 23:37:00,56.5,53.2,30.15,East,88,0.0,0.0,89,0.00,,,0.01,0.0,meteohub,2013-06-23 09:37:00,
2013-06-22 23:42:00,55.9,52.7,30.16,East,98,0.0,0.0,89,0.00,,,0.01,0.0,meteohub,2013-06-23 09:42:00,
2013-06-22 23:47:00,55.2,52.7,30.16,East,98,0.0,0.0,91,0.00,,,0.01,0.0,meteohub,2013-06-23 09:47:00,
2013-06-22 23:52:00,54.7,52.3,30.16,East,86,0.0,0.0,92,0.00,,,0.01,0.0,meteohub,2013-06-23 09:52:00,
2013-06-22 23:57:00,54.7,52.7,30.16,East,83,0.0,0.0,93,0.00,,,0.01,0.0,meteohub,2013-06-23 09:57:00,